[[{"header":{"parameterUnit":"m.s-1","parameterCategory":1,"la1":30.2991,"la2":30.254,"lo1":-89.0895,"lo2":-89.0444,"dy":0.0017,"dx":0.0017,"nx":28,"ny":28,"refTime":"2024-04-03T09:00:00:Z","depth":0,"parameterNumber":2,"parameterNumberName":"U-component_of_WINDS"},"data":[0,0,0,0,0,0,0,0,0,0,0,0,0,0,0,0,0,0,0,0,0,0,0,0,0,0,0,0,0,0,0,0,0,0,0,0,0,0,0,0,0,0,0,0,0,0,0,0,0,0,0,0,0,0,0,0,0,0,0.7048,0.7048,0,0.7013,0.7013,0.7013,0.6986,0.6986,0.6986,0.6985,0.6949,0.6948,0.6947,0,0,0,0,0,0,0,0,0,0,0,0,0,0.709,0.709,0.7048,0.7048,0.7047,0.7013,0.7013,0.7012,0.6986,0.6986,0.6986,0.6985,0.6949,0.6948,0.6947,0,0,0,0,0,0,0,0,0,0,0,0,0,0.7065,0.7089,0.7048,0.703,0.7028,0.7014,0.7013,0.7012,0.6986,0.6986,0.6985,0.6985,0.6949,0.6948,0.6947,0.6947,0,0,0.6943,0.6943,0,0,0,0,0,0,0,0,0.7067,0.7064,0.7033,0.7031,0.7029,0.7004,0.7014,0.699,0.6986,0.7002,0.6985,0.6985,0.6967,0.6964,0.6959,0.6946,0.6944,0.6943,0.6943,0.6942,0.6942,0,0,0,0,0,0,0,0.7069,0.7065,0.7034,0.7033,0.703,0.7023,0.7019,0.701,0.6987,0.7001,0.6999,0.6995,0.6966,0.696,0.6958,0.6943,0.6943,0.6942,0.6942,0.6941,0.6929,0.693,0,0,0,0,0,0,0.7073,0.7067,0.7035,0.7033,0.7047,0.7023,0.7018,0.7012,0.6987,0.6983,0.6995,0.6994,0.6962,0.6959,0.6956,0.6956,0.6942,0.6941,0.694,0.6929,0.6929,0.693,0,0,0,0,0,0,0.7074,0.7071,0.7037,0.7049,0.7045,0.7022,0.7016,0.7012,0.7006,0.6983,0.6979,0.6993,0.6962,0.6958,0.695,0.6954,0.6941,0.694,0.6929,0.6929,0.693,0.6955,0,0,0,0,0,0,0.7076,0.7071,0.7071,0.705,0.7044,0.7031,0.7016,0.7011,0.7004,0.7002,0.698,0.6976,0.6961,0.6952,0.6949,0.6952,0.6939,0.6928,0.6929,0.6929,0.6953,0.6956,0.6958,0,0,0,0,0,0.7077,0.7079,0.7072,0.7068,0.7044,0.7032,0.7028,0.7011,0.7004,0.7004,0.699,0.6977,0.6954,0.6951,0.6948,0.6951,0.6928,0.6929,0.6929,0.6952,0.6955,0.6958,0,0,0,0,0,0,0.7102,0.7076,0.7067,0.7063,0.705,0.7027,0.7027,0.7015,0.7004,0.7002,0.6981,0.6976,0.6971,0.696,0.6957,0.695,0.6939,0.6939,0.6958,0.6961,0.6963,0.6966,0.6938,0,0,0,0,0,0.7107,0.7099,0.7077,0.7075,0.7069,0.7049,0.7043,0.7031,0.7017,0.7011,0.6996,0.6982,0.6972,0.6965,0.6954,0.6951,0.6946,0.6952,0.6954,0.6956,0.6957,0.6955,0.6957,0.6932,0.6932,0.6932,0,0,0.7117,0.7102,0.7098,0.708,0.7068,0.7061,0.7045,0.7037,0.7032,0.701,0.7002,0.699,0.6973,0.6968,0.6965,0.6959,0.6963,0.6957,0.6959,0.6959,0.6956,0.6959,0.6961,0.6933,0.6933,0.6933,0,0,0.7131,0.7119,0.7117,0.7106,0.7089,0.7075,0.7075,0.7054,0.7046,0.7038,0.7021,0.7014,0.6996,0.6985,0.6977,0.6988,0.6976,0.6985,0.6998,0.6996,0.6998,0.7,0.7005,0.7007,0.6985,0.6985,0.6985,0,0.7146,0.7135,0.7116,0.7111,0.7103,0.7083,0.708,0.707,0.705,0.7046,0.7039,0.7017,0.7004,0.6997,0.6999,0.6993,0.6992,0.6988,0.7,0.7001,0.7002,0.7007,0.7009,0.6987,0.6987,0.6986,0.6986,0,0.7154,0.7146,0.7146,0.7129,0.7121,0.7116,0.7097,0.7091,0.708,0.7067,0.7059,0.7043,0.7029,0.7026,0.7015,0.7017,0.7014,0.7004,0.6992,0.7006,0.701,0.7012,0.6989,0.6988,0.6988,0.6987,0,0,0.7184,0.7156,0.7157,0.7149,0.7128,0.7122,0.7117,0.7104,0.7099,0.7086,0.7082,0.7067,0.7058,0.7049,0.7036,0.7035,0.7045,0.7025,0.7024,0.703,0.7048,0.7057,0.7059,0.7037,0.7037,0.7037,0.705,0,0.7196,0.7186,0.717,0.7165,0.7158,0.7139,0.7135,0.7122,0.711,0.7102,0.7088,0.7079,0.7067,0.7061,0.7059,0.7045,0.7049,0.7043,0.7033,0.7033,0.7039,0.7061,0.707,0.7083,0.7051,0.7051,0.7051,0,0.721,0.7199,0.7194,0.7175,0.7171,0.7167,0.7154,0.7147,0.7132,0.7123,0.7113,0.7099,0.7092,0.7082,0.7072,0.7069,0.7064,0.7056,0.7056,0.7055,0.7044,0.7062,0.7086,0.7089,0.7053,0.7053,0.7053,0,0.7234,0.7217,0.7212,0.7206,0.7183,0.7181,0.7171,0.7156,0.7149,0.7137,0.7133,0.712,0.7114,0.7104,0.7087,0.708,0.708,0.7067,0.7073,0.7074,0.7075,0.7075,0.71,0.7069,0.7069,0.7069,0.7069,0,0.725,0.7248,0.7223,0.722,0.7217,0.7198,0.7195,0.7184,0.717,0.7165,0.7146,0.7142,0.7119,0.7111,0.7097,0.7093,0.7089,0.7082,0.7079,0.7085,0.7086,0.7082,0.7081,0.707,0.7069,0.7069,0.7069,0,0.7277,0.726,0.7253,0.7232,0.7227,0.7226,0.7208,0.7204,0.7191,0.7184,0.7182,0.7161,0.7151,0.7133,0.7117,0.7108,0.7107,0.71,0.7112,0.711,0.7118,0.7118,0.7142,0.7144,0.7111,0.7111,0.7111,0,0.7289,0.7287,0.7266,0.7262,0.7253,0.7245,0.7238,0.7219,0.7213,0.7196,0.7194,0.7183,0.7173,0.7158,0.7142,0.713,0.7124,0.7133,0.7122,0.7128,0.7126,0.7127,0.7127,0.7136,0.7136,0.7137,0.7137,0,0.7313,0.7305,0.7296,0.7284,0.7277,0.7267,0.7256,0.7253,0.7231,0.7224,0.7214,0.7207,0.7192,0.7181,0.7167,0.7157,0.7144,0.7141,0.7141,0.7148,0.7156,0.7153,0.712,0.714,0.714,0.714,0.714,0.7139,0.7334,0.7332,0.7317,0.7308,0.7297,0.7287,0.7283,0.727,0.7261,0.7248,0.7237,0.7228,0.7213,0.7193,0.7183,0.7176,0.717,0.7171,0.7171,0.7172,0.7175,0.7156,0.7173,0.7173,0.7173,0.7173,0.7173,0,0.7358,0.7348,0.7339,0.7325,0.7318,0.7306,0.7293,0.7288,0.728,0.7267,0.7258,0.7247,0.7237,0.722,0.7208,0.7206,0.7199,0.7203,0.7204,0.7202,0.7181,0.7182,0.7209,0.7209,0.7209,0.7209,0.7209,0.7209,0.737,0.7366,0.7356,0.7347,0.7336,0.7328,0.7322,0.7312,0.7302,0.7291,0.7282,0.7271,0.7257,0.7244,0.7234,0.7229,0.7226,0.7232,0.7226,0.7207,0.7203,0.72,0.7201,0.7232,0.7232,0.7248,0.7248,0.7248]},{"header":{"parameterUnit":"m.s-1","parameterCategory":1,"la1":30.2991,"la2":30.254,"lo1":-89.0895,"lo2":-89.0444,"dy":0.0017,"dx":0.0017,"nx":28,"ny":28,"refTime":"2024-04-03T09:00:00:Z","depth":0,"parameterNumber":3,"parameterNumberName":"V-component_of_WINDS"},"data":[0,0,0,0,0,0,0,0,0,0,0,0,0,0,0,0,0,0,0,0,0,0,0,0,0,0,0,0,0,0,0,0,0,0,0,0,0,0,0,0,0,0,0,0,0,0,0,0,0,0,0,0,0,0,0,0,0,0,-3.6062,-3.6063,0,-3.6195,-3.6197,-3.6198,-3.6153,-3.615,-3.6147,-3.6145,-3.628,-3.6286,-3.6292,0,0,0,0,0,0,0,0,0,0,0,0,0,-3.5767,-3.5773,-3.6062,-3.6063,-3.6065,-3.6195,-3.6197,-3.6199,-3.6154,-3.615,-3.6147,-3.6143,-3.6278,-3.6285,-3.6293,0,0,0,0,0,0,0,0,0,0,0,0,0,-3.5897,-3.5775,-3.6061,-3.6058,-3.6059,-3.6195,-3.6197,-3.6199,-3.6154,-3.615,-3.6146,-3.6142,-3.6275,-3.6284,-3.6294,-3.644,0,0,-3.6323,-3.6327,0,0,0,0,0,0,0,0,-3.589,-3.5908,-3.6057,-3.6059,-3.606,-3.6153,-3.6143,-3.628,-3.6156,-3.6118,-3.6145,-3.6139,-3.6241,-3.6253,-3.6288,-3.6446,-3.6452,-3.6323,-3.6329,-3.6333,-3.6336,0,0,0,0,0,0,0,-3.5881,-3.5902,-3.6114,-3.6059,-3.6061,-3.605,-3.6064,-3.6168,-3.6202,-3.6121,-3.6118,-3.6135,-3.6241,-3.6279,-3.629,-3.6454,-3.6323,-3.6332,-3.6337,-3.6341,-3.6739,-3.6744,0,0,0,0,0,0,-3.5871,-3.5895,-3.611,-3.6118,-3.5963,-3.6059,-3.6074,-3.6128,-3.6201,-3.6208,-3.6138,-3.6132,-3.6265,-3.6279,-3.6295,-3.6471,-3.6333,-3.6342,-3.6348,-3.6735,-3.6741,-3.6746,0,0,0,0,0,0,-3.5865,-3.5891,-3.6105,-3.6006,-3.6032,-3.6069,-3.6129,-3.6133,-3.617,-3.6214,-3.622,-3.6171,-3.6262,-3.6282,-3.6404,-3.6475,-3.6346,-3.6355,-3.6729,-3.6736,-3.6743,-3.6825,0,0,0,0,0,0,-3.5857,-3.5889,-3.5945,-3.6008,-3.6038,-3.6212,-3.6133,-3.6138,-3.6187,-3.618,-3.6246,-3.6253,-3.626,-3.639,-3.6414,-3.6486,-3.6362,-3.6723,-3.6732,-3.6741,-3.6816,-3.6834,-3.685,0,0,0,0,0,-3.5847,-3.5962,-3.5948,-3.5974,-3.6108,-3.6216,-3.6234,-3.624,-3.6193,-3.6249,-3.6278,-3.6251,-3.6464,-3.6403,-3.6429,-3.6505,-3.6718,-3.6729,-3.674,-3.6808,-3.683,-3.6849,0,0,0,0,0,0,-3.5906,-3.597,-3.5955,-3.6094,-3.615,-3.6209,-3.628,-3.6263,-3.6333,-3.6324,-3.6328,-3.6344,-3.647,-3.65,-3.6431,-3.6651,-3.6584,-3.6601,-3.6627,-3.6648,-3.6665,-3.6655,-3.637,0,0,0,0,0,-3.5935,-3.6018,-3.6069,-3.6187,-3.6216,-3.6243,-3.6291,-3.6291,-3.6349,-3.6372,-3.6409,-3.6467,-3.6546,-3.6599,-3.6675,-3.682,-3.6834,-3.6885,-3.6902,-3.6916,-3.693,-3.701,-3.7034,-3.6782,-3.6782,-3.6782,0,0,-3.5996,-3.6042,-3.6093,-3.62,-3.6243,-3.6329,-3.6264,-3.6356,-3.642,-3.6386,-3.6504,-3.6534,-3.6598,-3.6733,-3.6794,-3.6762,-3.7003,-3.693,-3.694,-3.6947,-3.7024,-3.7048,-3.7069,-3.679,-3.6788,-3.6787,0,0,-3.6151,-3.6194,-3.6297,-3.6343,-3.641,-3.6427,-3.6452,-3.6514,-3.6532,-3.6651,-3.6628,-3.6704,-3.6841,-3.6888,-3.693,-3.7105,-3.7083,-3.7129,-3.7217,-3.7295,-3.7315,-3.7332,-3.7395,-3.7418,-3.7143,-3.7144,-3.7144,0,-3.6219,-3.6347,-3.6352,-3.6448,-3.6496,-3.647,-3.6575,-3.6618,-3.6707,-3.674,-3.6703,-3.6876,-3.6917,-3.7063,-3.7106,-3.714,-3.7169,-3.7122,-3.7312,-3.7329,-3.7346,-3.7406,-3.743,-3.7149,-3.7148,-3.7148,-3.7147,0,-3.6427,-3.6516,-3.6592,-3.6679,-3.6735,-3.6835,-3.6855,-3.6912,-3.6908,-3.6929,-3.7051,-3.71,-3.7186,-3.7221,-3.7217,-3.7367,-3.7345,-3.731,-3.7242,-3.7375,-3.7432,-3.7455,-3.7156,-3.7155,-3.7153,-3.7152,0,0,-3.6622,-3.6712,-3.674,-3.6779,-3.6852,-3.6921,-3.702,-3.7105,-3.7154,-3.7215,-3.7299,-3.7416,-3.7385,-3.7432,-3.7434,-3.7502,-3.7639,-3.7459,-3.746,-3.7491,-3.7808,-3.7834,-3.7861,-3.7625,-3.7629,-3.7633,-3.7803,0,-3.6784,-3.6958,-3.6966,-3.7125,-3.7208,-3.7185,-3.7271,-3.7325,-3.7349,-3.7423,-3.7448,-3.7532,-3.7483,-3.7512,-3.7579,-3.7608,-3.7702,-3.7596,-3.7702,-3.7706,-3.7687,-3.789,-3.7918,-3.8076,-3.7825,-3.7828,-3.7831,0,-3.6995,-3.7065,-3.7232,-3.7294,-3.7329,-3.7407,-3.7486,-3.7557,-3.7618,-3.763,-3.7684,-3.7676,-3.7778,-3.7707,-3.7847,-3.7774,-3.7819,-3.784,-3.7846,-3.7856,-3.7777,-3.7906,-3.8126,-3.815,-3.7866,-3.7863,-3.7861,0,-3.7122,-3.7257,-3.7375,-3.741,-3.7485,-3.754,-3.7574,-3.7631,-3.7682,-3.7751,-3.7784,-3.7864,-3.7908,-3.7969,-3.7983,-3.7931,-3.8124,-3.8054,-3.8137,-3.8137,-3.8178,-3.8176,-3.8409,-3.8207,-3.8206,-3.8206,-3.8205,0,-3.7301,-3.7405,-3.7433,-3.7506,-3.7621,-3.763,-3.7743,-3.7773,-3.7825,-3.7903,-3.7888,-3.7961,-3.7975,-3.8051,-3.8063,-3.8178,-3.8197,-3.821,-3.8212,-3.8212,-3.821,-3.8241,-3.823,-3.8212,-3.8211,-3.8209,-3.8208,0,-3.7462,-3.7485,-3.7612,-3.7674,-3.7692,-3.7774,-3.7826,-3.7896,-3.7918,-3.8017,-3.8041,-3.8075,-3.8165,-3.8185,-3.8291,-3.8298,-3.8435,-3.8426,-3.8415,-3.8414,-3.8496,-3.8488,-3.8757,-3.8793,-3.8567,-3.8569,-3.8571,0,-3.7575,-3.7654,-3.7725,-3.7776,-3.7813,-3.7896,-3.7948,-3.796,-3.8015,-3.8092,-3.8153,-3.824,-3.8311,-3.8456,-3.849,-3.8571,-3.8564,-3.8653,-3.8576,-3.8574,-3.8566,-3.8561,-3.857,-3.8667,-3.867,-3.8672,-3.8673,0,-3.7774,-3.7782,-3.7858,-3.7939,-3.8002,-3.8066,-3.8127,-3.817,-3.8191,-3.8253,-3.8345,-3.8401,-3.851,-3.8597,-3.8679,-3.8714,-3.8698,-3.8698,-3.8721,-3.8722,-3.8712,-3.8719,-3.8455,-3.8691,-3.8689,-3.8688,-3.8687,-3.8686,-3.7914,-3.7984,-3.8045,-3.8131,-3.8178,-3.8236,-3.8305,-3.8336,-3.8413,-3.8503,-3.8506,-3.8606,-3.8666,-3.8775,-3.8814,-3.8893,-3.8866,-3.8899,-3.8908,-3.8916,-3.8924,-3.87,-3.8908,-3.8907,-3.8907,-3.8907,-3.8906,0,-3.8113,-3.8151,-3.823,-3.8317,-3.8384,-3.8364,-3.8431,-3.8489,-3.8578,-3.8635,-3.8706,-3.8812,-3.8898,-3.894,-3.9024,-3.9079,-3.9074,-3.9101,-3.9097,-3.9106,-3.8944,-3.8915,-3.9104,-3.9104,-3.9104,-3.9104,-3.9104,-3.9104,-3.8224,-3.8341,-3.8357,-3.8498,-3.8535,-3.8634,-3.8674,-3.8728,-3.8774,-3.8893,-3.8965,-3.8992,-3.9043,-3.9132,-3.9209,-3.9219,-3.9251,-3.9282,-3.9289,-3.9137,-3.9117,-3.9098,-3.9071,-3.9289,-3.9289,-3.9444,-3.9446,-3.9447]}]]